Overview Statistics Trail Chart Weather Telemetry Raw packets
 

This is the latest recevied weather packets stored in our database for station/object M0HPP-13. If no packets are shown the sender has not sent any weather packets the latest 10 day(s).

<< 16 17 18 19 20 21 22 >>
Time Temp. Humidity Pressure Rain* Wind** Luminosity Snow
1788377286 12.22° C 96% 1007.4 hPa 0 mm - 1 W/m² -
1788376686 12.22° C 95% 1007.4 hPa 0 mm - 2 W/m² -
1788376086 12.22° C 96% 1007.6 hPa 0 mm - 8 W/m² -
1788375486 12.22° C 95% 1007.7 hPa 0 mm - 11 W/m² -
1788374886 12.22° C 95% 1007.8 hPa 0 mm - 10 W/m² -
1788374286 11.67° C 94% 1008.1 hPa 0 mm - 13 W/m² -
1788373686 11.67° C 94% 1008 hPa 0 mm - 13 W/m² -
1788373086 11.67° C 94% 1008.3 hPa 0 mm - 15 W/m² -
1788372486 11.67° C 93% 1008.4 hPa 0 mm - 17 W/m² -
1788371886 11.67° C 92% 1008.5 hPa 0 mm - 18 W/m² -
1788371286 11.67° C 91% 1008.5 hPa 0 mm - 19 W/m² -
1788370686 11.67° C 91% 1008.8 hPa 0 mm - 18 W/m² -
1788370086 11.67° C 88% 1009.1 hPa 0 mm - 22 W/m² -
1788369486 11.67° C 87% 1009.2 hPa 0 mm - 27 W/m² -
1788368886 11.11° C 86% 1009.3 hPa 0 mm - 27 W/m² -
1788368286 11.67° C 85% 1009.4 hPa 0 mm - 38 W/m² -
1788367707 11.67° C 84% 1009.3 hPa 0 mm - 99 W/m² -
1788367086 11.67° C 83% 1009.5 hPa 0 mm - 113 W/m² -
1788366486 11.67° C 83% 1009.7 hPa 0 mm - 85 W/m² -
1788365886 11.67° C 82% 1009.9 hPa 0 mm - 79 W/m² -
1788365286 11.67° C 82% 1010.1 hPa 0 mm - 81 W/m² -
1788364686 11.67° C 82% 1010.4 hPa 0 mm - 96 W/m² -
1788364086 11.11° C 81% 1010.6 hPa 0 mm - 95 W/m² -
1788363486 11.11° C 82% 1010.6 hPa 0 mm - 80 W/m² -
1788362886 11.11° C 82% 1010.8 hPa 0 mm - 60 W/m² -

* Rain latest hour (hover to see other rain measurements)
** Current wind speed in m/s (hover to see current wind gust speed)